N0LSD-13 Weather Reports


time (UTC)temp
F
wind
direction
speed
knots
gust
knots
rain 1hr
in
rain 24hr
in
rain mn
in
humidity
%
barometer
mb
20260505041004 63 150 4.3 10.4 0.00 0.02 0.00 73 982.6
20260505035004 64 159 2.6 6.1 0.00 0.02 0.02 68 982.5
20260505034005 62 141 2.6 5.2 0.00 0.02 0.02 70 982.2
20260505033004 61 286 0.9 5.2 0.00 0.02 0.02 71 982.3
20260505032004 61 236 1.7 4.3 0.00 0.02 0.02 70 982.3
20260505031004 61 283 1.7 5.2 0.00 0.02 0.02 69 982.4
20260505030005 61 143 2.6 4.3 0.01 0.02 0.02 68 982.8
20260505024003 61 134 2.6 6.1 0.02 0.02 0.02 68 982.8
20260505023004 61 164 2.6 7.0 0.02 0.02 0.02 69 983.1
20260505022005 60 189 2.6 7.0 0.02 0.02 0.02 70 982.8
20260505021004 59 138 3.5 7.8 0.02 0.02 0.02 67 982.6
20260505020005 59 16 1.7 2.6 0.01 0.01 0.01 66 983.1
20260505015005 59 299 0.9 2.6 0.00 0.00 0.00 56 982.7
20260505014004 59 259 0.9 2.6 0.00 0.00 0.00 55 982.7
20260505013005 60 270 0.9 4.3 0.00 0.00 0.00 55 982.8
20260505012004 61 295 0.9 2.6 0.00 0.00 0.00 54 982.8
20260505011007 61 255 0.9 2.6 0.00 0.00 0.00 53 982.9
20260505010004 62 230 0.9 4.3 0.00 0.00 0.00 51 982.8
20260505005004 63 331 0.9 4.3 0.00 0.00 0.00 48 982.7
20260505004004 65 146 1.7 4.3 0.00 0.00 0.00 43 982.6
20260505003004 66 262 0.9 6.1 0.00 0.00 0.00 41 982.7
20260505001005 67 209 1.7 7.0 0.00 0.00 0.00 39 982.6
20260505000005 68 244 2.6 7.0 0.00 0.00 0.00 38 982.7
20260504235004 69 183 2.6 7.8 0.00 0.00 0.00 38 982.7
20260504234004 69 139 5.2 10.4 0.00 0.00 0.00 36 982.7
20260504233004 70 227 1.7 8.7 0.00 0.00 0.00 36 982.8
20260504231005 71 194 3.5 10.4 0.00 0.00 0.00 37 982.9
20260504230005 71 212 4.3 7.8 0.00 0.00 0.00 40 983.0
20260504225004 70 180 3.5 10.4 0.00 0.00 0.00 41 983.0
20260504224004 70 193 5.2 11.3 0.00 0.00 0.00 40 983.0
20260504223004 70 185 4.3 10.4 0.00 0.00 0.00 40 983.0
20260504222005 70 230 2.6 10.4 0.00 0.00 0.00 40 982.9
20260504221005 71 117 5.2 12.2 0.00 0.00 0.00 39 983.1
20260504220005 71 157 5.2 13.0 0.00 0.00 0.00 35 982.9
20260504215004 71 223 6.1 18.2 0.00 0.00 0.00 34 983.0
20260504214004 72 195 7.0 14.8 0.00 0.00 0.00 33 982.9
20260504213005 72 183 4.3 13.0 0.00 0.00 0.00 34 982.8
20260504212004 72 179 5.2 13.9 0.00 0.00 0.00 35 982.7
20260504211004 72 167 6.1 14.8 0.00 0.00 0.00 36 982.9
20260504210004 71 178 6.1 14.8 0.00 0.00 0.00 38 983.0
20260504205004 71 203 4.3 14.8 0.00 0.00 0.00 39 983.2
20260504204003 71 175 4.3 18.2 0.00 0.00 0.00 41 983.5
20260504203004 70 169 4.3 18.2 0.00 0.00 0.00 42 983.6
20260504202005 71 166 6.1 18.2 0.00 0.00 0.00 41 983.5
20260504201004 71 171 4.3 11.3 0.00 0.00 0.00 41 983.5
20260504200004 71 123 4.3 10.4 0.00 0.00 0.00 41 983.6
20260504195004 71 165 5.2 13.0 0.00 0.00 0.00 41 983.8
20260504193004 71 185 7.0 13.9 0.00 0.00 0.00 40 984.1
20260504191004 71 162 6.1 13.0 0.00 0.00 0.00 41 984.5
20260504190004 71 208 7.0 14.8 0.00 0.00 0.00 41 984.5
20260504185004 70 177 7.8 14.8 0.00 0.00 0.00 41 984.5
20260504184005 69 146 4.3 18.2 0.00 0.00 0.00 43 984.7
20260504183004 69 184 8.7 14.8 0.00 0.00 0.00 43 985.0
20260504181004 70 140 2.6 13.9 0.00 0.00 0.00 45 984.9
20260504180004 69 189 3.5 12.2 0.00 0.00 0.00 46 985.2
20260504175004 67 180 5.2 15.6 0.00 0.00 0.00 47 985.6
20260504174004 67 182 8.7 15.6 0.00 0.00 0.00 47 985.7
20260504171005 66 179 6.1 18.2 0.00 0.00 0.00 48 985.6
20260504151004 61 196 7.8 14.8 0.00 0.00 0.00 51 986.6
20260504141004 59 131 6.1 14.8 0.00 0.00 0.00 54 986.6
20260504082004 50 141 3.5 7.0 0.00 0.00 0.00 65 987.5
20260504081005 50 193 2.6 6.1 0.00 0.00 0.00 68 987.5
20260504043006 51 195 6.1 11.3 0.00 0.00 0.00 63 989.2
20260504042005 51 206 6.1 12.2 0.00 0.00 0.00 61 989.0